Theta_e
308 308 314 326 334 333 339 337 332 327 327 324 323 322 321 321 323 323 335 332 335 331 326 324 322 321 321 322 323 325 326 326 327 331 335 335 332 326 330 332 332 330 330 330 329 329 328 329 332
309 311 323 330 338 343 342 336 335 326 325 322 322 319 321 324 326 325 330 332 333 332 325 323 323 323 322 323 325 327 329 329 330 336 337 337 336 334 333 333 333 333 332 332 331 331 330 329 328
312 321 325 336 338 341 342 336 334 330 323 323 324 323 323 324 326 325 327 330 332 331 329 328 326 325 324 324 327 329 330 331 332 335 338 337 336 336 335 334 334 334 334 332 332 332 331 330 329
321 333 332 336 336 334 338 336 333 327 324 323 323 326 324 324 327 327 328 329 329 329 329 330 330 327 326 326 326 328 329 332 338 338 338 336 335 333 332 335 334 334 333 332 333 333 332 331 330
330 330 336 335 336 334 332 331 326 325 325 322 323 326 324 325 328 326 329 329 330 331 331 334 334 331 328 326 325 325 329 336 337 338 338 336 334 333 333 333 333 333 332 332 333 333 334 331 330
332 326 330 332 331 331 328 328 330 328 325 322 324 324 323 326 327 326 326 328 328 329 334 334 329 325 325 323 322 320 321 323 328 333 332 332 332 332 332 332 331 331 331 331 332 331 333 331 332
332 331 333 332 333 330 330 328 330 329 327 323 323 324 325 322 326 325 324 325 326 327 328 326 326 326 323 322 322 321 320 322 322 323 323 324 324 328 329 329 329 329 330 330 331 331 331 332 330
328 328 331 330 331 330 328 324 323 328 328 323 322 326 324 322 324 325 324 325 325 325 325 324 325 324 324 323 323 323 323 323 325 325 326 325 325 325 327 327 328 328 328 329 330 330 331 331 330
328 330 332 330 330 330 328 326 324 325 325 324 322 323 325 324 324 324 325 325 325 326 325 325 324 325 325 324 325 326 325 325 325 327 327 327 326 324 323 323 327 329 331 330 330 330 331 329 330
329 330 334 332 328 329 329 326 324 323 323 325 324 325 325 324 323 322 322 322 323 323 323 324 324 323 324 324 327 328 327 327 329 329 327 325 323 323 322 324 326 328 329 329 330 331 332 331 330
329 333 332 331 329 328 329 328 327 324 323 322 324 325 323 322 321 321 322 323 322 322 322 322 322 323 325 327 327 328 328 328 328 328 326 324 325 324 322 323 324 325 325 326 327 329 331 330 330
331 331 331 331 330 329 328 328 328 324 324 323 323 325 323 322 321 319 320 321 321 322 322 322 324 327 327 327 328 327 328 328 327 327 326 326 326 326 323 324 325 325 326 325 326 328 329 329 330
331 331 331 330 329 328 328 328 327 326 325 323 322 323 323 323 321 321 321 322 322 322 325 327 328 327 326 325 326 327 328 328 328 328 327 327 326 326 325 323 325 325 325 325 326 327 328 329 328
327 330 330 329 329 328 328 328 326 327 325 324 321 322 321 321 320 319 320 321 322 326 327 327 328 326 326 326 328 329 329 328 329 329 329 328 326 326 326 324 324 324 323 325 325 326 328 328 327
319 325 327 328 325 325 324 326 326 325 324 323 320 320 320 320 320 320 321 322 324 325 327 327 326 327 327 327 328 329 329 329 329 329 330 328 327 326 325 324 324 324 324 324 325 325 326 326 327
319 318 320 321 323 324 324 327 325 324 323 323 323 320 319 318 321 321 322 323 323 326 327 327 327 327 327 327 329 328 329 330 330 331 329 328 327 325 324 322 324 325 325 324 324 324 325 325 326
317 320 320 321 321 324 324 326 326 325 325 324 323 322 322 320 320 321 322 323 323 326 327 327 327 327 327 328 328 327 329 330 331 330 328 327 326 324 322 320 324 325 325 323 323 325 325 326 327
320 319 321 322 322 323 324 325 325 325 324 324 322 323 323 321 320 322 324 323 325 327 327 328 327 327 328 329 327 330 330 331 330 329 328 328 327 322 320 324 326 325 325 323 323 324 324 326 326
320 320 321 322 322 324 324 326 326 326 325 322 322 322 323 323 323 325 324 323 326 327 327 327 327 327 328 327 330 331 331 331 330 329 330 329 328 326 322 326 327 326 325 324 323 323 324 325 326
317 320 321 321 322 322 322 325 326 325 326 323 323 323 324 324 326 325 324 324 325 326 327 328 328 328 328 328 331 331 331 331 330 331 330 329 328 327 325 325 326 326 325 324 324 324 326 327 327
318 318 322 323 323 322 322 325 326 326 326 326 324 323 325 325 325 325 324 323 325 326 327 329 328 328 327 330 330 329 330 330 330 330 329 329 328 327 325 325 326 325 324 324 325 325 326 327 328
321 320 320 324 325 324 323 326 323 324 324 324 323 322 324 324 325 325 323 322 324 325 326 328 329 328 329 330 329 331 331 330 331 330 329 328 328 326 326 327 326 325 326 324 325 326 326 327 328
321 321 322 324 324 321 323 324 323 323 325 324 323 324 324 323 324 325 323 323 324 325 327 329 327 328 330 330 330 330 329 330 330 329 327 325 328 327 327 326 326 325 326 326 326 326 326 327 328
319 321 321 321 322 324 323 325 326 324 325 325 321 325 324 324 323 324 323 323 325 325 328 327 327 328 330 331 330 329 326 328 328 328 328 328 328 327 326 328 326 327 327 327 326 326 327 326 328
319 319 322 322 325 326 323 326 326 324 324 324 323 326 325 325 326 325 324 322 324 326 327 327 327 328 329 329 329 329 327 327 326 326 327 328 327 328 327 327 327 326 327 327 326 325 326 326 328
315 318 322 324 326 325 324 326 325 323 323 323 327 326 326 325 326 325 324 322 324 326 326 328 327 326 327 328 329 329 326 325 325 326 329 329 328 328 327 327 326 325 327 328 328 326 327 324 328
315 315 318 321 324 324 324 324 326 324 326 328 328 327 326 326 325 325 323 322 323 325 327 327 327 326 328 328 328 330 328 329 328 328 328 329 328 327 327 327 326 327 328 327 328 328 329 328 330
315 318 322 320 325 326 325 326 326 324 328 329 328 327 325 325 325 324 322 321 322 326 326 326 328 325 327 328 328 330 330 330 330 328 328 328 329 329 328 328 326 326 329 329 328 329 330 330 330
314 316 320 321 321 325 325 324 321 323 325 329 327 326 326 325 325 324 322 322 322 325 323 326 327 326 326 327 328 330 330 331 328 327 328 329 329 329 329 330 329 330 329 329 328 329 330 330 329
315 315 319 323 324 321 322 322 323 323 329 328 327 327 325 325 324 323 321 321 321 322 323 327 325 325 325 326 328 329 330 329 327 326 329 329 329 330 329 330 330 330 329 329 329 329 328 328 326
Wind_Speed
7 7 6 3 2 3 4 6 4 5 1 4 3 6 7 2 3 3 17 18 24 31 32 29 24 20 17 16 16 15 14 13 11 11 11 11 11 11 11 10 9 7 7 8 10 11 10 10 9
10 9 2 1 2 1 5 6 3 5 5 5 8 6 4 1 1 7 15 23 24 28 28 25 22 20 18 16 15 14 14 13 12 12 12 13 14 15 14 13 11 10 10 10 10 11 12 11 11
9 3 2 3 3 5 5 6 7 7 7 5 3 2 7 6 2 17 11 27 25 25 25 25 22 19 16 14 13 14 14 13 12 14 14 14 14 16 16 16 15 14 14 14 14 13 13 13 13
6 2 3 2 9 8 6 16 6 5 4 2 4 7 3 8 19 15 28 26 24 24 24 23 20 18 16 14 13 13 14 13 14 15 15 14 16 18 19 18 17 17 17 17 16 16 14 15 15
1 2 2 4 7 6 10 10 7 2 4 2 3 3 1 3 13 27 28 27 26 24 24 22 19 18 16 14 13 11 12 14 16 16 16 16 18 19 19 18 18 19 19 19 19 17 18 17 16
2 2 1 5 5 5 5 7 2 3 5 5 6 9 7 14 27 28 23 24 23 23 25 23 21 17 13 10 9 9 11 13 15 17 17 18 19 19 18 19 20 20 20 20 20 21 20 19 17
4 2 4 5 13 9 1 8 5 8 7 6 12 7 2 7 29 27 22 22 22 23 24 22 19 15 9 8 11 12 12 12 12 13 13 14 16 17 18 20 21 23 23 24 23 22 21 22 20
5 4 4 5 5 12 6 8 7 4 8 3 8 7 5 9 27 25 24 24 20 19 17 18 16 14 12 13 11 12 14 14 11 12 12 11 12 13 13 17 19 19 21 23 22 22 23 23 20
4 1 8 6 7 9 14 4 8 4 1 4 5 8 9 31 27 26 24 22 21 22 20 19 17 15 13 11 8 11 13 13 13 12 11 10 14 16 17 15 14 13 17 20 21 22 22 23 21
6 6 13 14 8 12 17 6 8 5 6 5 1 4 17 33 30 23 18 20 23 23 18 19 17 16 12 6 7 6 8 12 16 14 11 14 13 12 11 13 13 14 15 15 20 21 20 20 21
8 15 21 19 16 16 18 18 12 7 6 8 7 9 11 12 15 18 22 26 30 25 20 21 18 14 8 4 3 5 8 9 11 13 13 13 12 11 10 10 10 13 14 15 13 17 20 22 20
7 14 20 24 21 18 19 19 18 7 11 7 10 17 10 12 14 15 20 16 24 30 27 21 15 9 3 2 3 5 7 8 10 14 16 13 13 13 11 10 12 12 12 13 13 16 20 20 20
12 23 22 20 18 21 21 20 21 13 13 4 10 13 18 17 15 25 28 27 31 29 27 23 15 6 1 2 2 4 6 12 15 16 14 13 15 15 14 12 12 11 11 13 12 16 19 20 19
11 14 19 17 19 22 20 22 10 12 10 10 10 17 16 16 18 13 24 30 33 30 27 21 13 5 3 1 4 6 9 12 14 15 15 16 16 17 16 13 12 13 11 11 13 16 19 19 19
12 18 20 18 15 21 14 21 15 11 10 9 12 14 14 18 16 21 32 35 36 31 26 20 11 7 4 2 5 9 12 13 15 15 14 15 16 15 17 14 13 13 10 12 13 16 19 19 18
7 6 9 10 12 19 8 25 16 12 9 12 12 10 12 11 17 22 34 37 35 30 25 17 11 9 6 5 7 11 13 13 14 12 12 14 14 15 15 13 13 12 10 12 15 17 17 18 19
6 13 16 16 10 13 8 19 15 14 16 19 12 10 11 10 7 20 33 38 35 30 25 19 12 11 6 4 7 11 13 12 12 10 10 11 14 14 15 13 12 11 11 14 17 17 16 15 17
7 7 6 18 16 9 12 15 18 18 14 19 10 11 10 8 14 19 24 32 31 27 22 18 13 8 5 4 5 8 8 11 10 9 9 8 9 11 12 12 11 9 10 12 18 18 16 14 15
7 8 10 22 22 6 9 15 23 19 2 9 11 10 11 6 8 21 29 32 28 25 22 16 12 9 6 3 5 6 7 9 10 11 10 9 8 8 11 11 9 9 10 11 15 15 14 15 11
13 13 17 22 21 5 14 18 23 13 7 11 15 10 5 7 11 15 24 28 29 25 20 15 12 9 6 2 5 7 8 9 10 9 9 8 6 7 11 12 9 9 11 11 15 15 11 10 12
17 19 18 19 19 10 9 14 14 11 4 5 7 6 11 18 17 16 15 21 28 25 20 16 13 10 4 2 2 3 6 9 8 5 5 5 3 4 9 10 9 10 11 14 16 17 15 10 12
19 19 20 17 11 8 6 6 5 7 6 4 8 5 10 15 15 15 12 15 27 24 20 18 15 9 5 2 3 4 6 7 7 3 2 1 2 5 7 6 8 9 9 14 16 18 18 15 16
20 14 15 17 13 5 22 2 8 5 6 8 9 7 10 17 18 16 14 20 25 23 21 18 14 8 7 3 1 4 6 7 3 2 1 0 2 5 7 8 8 8 7 13 16 19 18 17 21
24 10 10 9 9 6 16 5 17 5 8 5 1 5 8 10 10 9 17 23 24 23 21 20 14 10 7 6 2 4 5 6 5 2 0 3 2 7 9 9 10 7 5 13 14 17 18 20 20
13 7 4 3 6 11 10 7 12 6 8 7 7 9 10 11 13 14 13 10 19 23 23 18 14 11 7 9 4 3 3 5 4 4 5 4 4 9 12 12 11 9 11 12 12 11 13 16 20
19 14 7 7 5 3 7 7 11 9 6 6 8 13 12 12 12 14 12 13 19 26 23 19 17 12 9 9 5 1 3 5 4 4 5 3 4 10 13 12 12 11 10 10 11 12 14 14 16
9 18 15 3 3 2 4 6 8 3 7 11 12 13 13 12 12 14 11 16 22 25 24 19 19 13 13 9 4 2 2 3 1 3 6 5 7 9 11 12 13 10 11 12 11 14 14 16 19
26 6 6 1 11 6 4 3 5 2 6 8 9 10 9 9 11 12 11 15 24 28 23 18 19 16 15 9 5 3 3 3 3 3 5 7 5 6 10 12 13 12 11 14 16 18 17 19 19
9 15 6 6 7 8 3 7 7 11 13 15 13 13 14 14 14 13 10 18 26 27 21 17 19 17 13 8 7 6 3 5 6 6 7 5 5 5 9 15 16 17 19 19 18 19 20 21 21
13 10 14 10 5 3 6 8 5 9 17 18 13 14 12 13 13 11 10 16 21 25 21 20 20 20 15 12 9 9 7 8 8 7 7 8 9 7 11 15 16 20 22 21 23 22 20 19 21
Wind_Direction
196 155 126 61 25 73 242 253 240 259 62 227 191 133 157 122 174 220 160 172 174 173 179 182 186 189 194 198 201 203 208 211 217 224 225 232 238 248 248 242 242 247 249 255 260 261 258 260 267
174 133 103 26 99 22 267 255 293 246 237 199 115 116 81 216 95 129 149 167 169 174 178 184 190 195 198 204 207 211 214 218 227 230 230 236 241 246 252 251 251 252 252 252 253 258 260 255 255
165 148 79 157 195 198 217 247 232 290 217 221 96 86 147 171 116 153 171 160 164 174 185 192 192 195 199 205 213 221 227 234 241 239 235 242 248 250 249 252 253 252 254 257 259 256 255 257 251
176 77 308 184 239 263 237 268 275 267 327 17 138 84 44 243 160 166 156 163 168 180 188 190 190 191 197 206 218 230 239 243 239 240 239 244 251 255 257 252 250 254 255 256 255 256 249 247 249
204 68 259 255 256 264 280 278 243 293 306 22 116 154 89 223 172 155 162 173 179 180 184 182 184 191 201 217 221 231 242 244 246 243 245 249 253 254 254 255 256 255 255 255 249 250 243 237 239
30 103 301 257 253 258 303 244 266 252 277 140 91 138 188 167 155 163 165 172 173 172 179 181 184 195 203 217 226 236 240 245 251 252 259 257 254 255 256 255 257 258 255 251 250 248 243 235 233
141 92 237 267 286 300 235 304 275 246 233 218 155 139 261 183 165 168 164 158 157 162 173 183 188 196 209 227 227 232 236 244 245 252 262 268 265 260 259 258 258 257 256 253 250 249 246 232 231
159 132 264 237 270 286 278 338 302 320 262 113 161 168 188 215 175 172 162 160 166 179 192 196 195 197 207 215 228 237 236 235 247 255 259 276 279 276 268 263 258 258 256 254 249 249 244 231 224
138 125 258 241 227 255 287 332 286 275 164 280 217 153 201 175 171 159 156 165 177 186 197 195 192 200 199 200 218 235 241 231 244 241 255 264 272 274 272 263 262 268 265 254 247 245 238 226 223
167 184 240 237 255 271 283 264 288 310 314 277 24 26 140 157 162 163 174 191 197 190 192 191 189 180 175 205 197 220 238 250 254 244 241 279 278 283 279 275 270 271 276 268 247 240 225 220 223
199 225 242 268 260 264 271 287 280 273 298 265 200 176 155 150 167 174 190 198 202 195 177 170 170 173 182 201 248 221 248 276 244 238 268 285 277 286 272 280 265 267 263 265 256 227 219 217 219
264 240 245 253 261 267 267 275 274 243 256 250 192 178 158 166 180 188 197 177 176 167 165 172 182 174 238 349 300 256 259 277 251 265 280 272 272 277 276 266 274 266 265 259 241 228 219 213 220
237 243 247 256 266 267 270 264 257 259 265 246 174 175 180 183 188 197 195 177 161 162 166 167 170 178 183 349 254 259 275 279 283 286 276 266 273 270 272 261 265 259 261 252 241 227 217 214 218
246 248 251 261 266 270 268 272 263 254 254 279 177 195 191 186 194 180 172 169 169 166 165 166 170 163 115 307 285 301 290 294 289 289 282 273 267 266 251 255 260 262 257 248 238 227 216 217 225
265 263 265 262 260 264 283 279 260 255 258 229 204 198 199 201 183 186 177 171 172 172 166 166 159 154 168 271 292 288 290 286 288 290 287 274 268 250 238 257 264 260 262 246 234 228 226 223 228
300 290 267 249 260 266 215 269 278 259 247 238 220 224 203 198 200 191 171 173 172 165 164 156 149 154 171 236 273 294 292 277 285 286 286 273 258 245 245 254 261 259 258 237 227 222 223 227 230
240 259 264 276 249 268 235 271 272 281 259 243 223 220 226 212 174 176 178 172 165 162 156 149 157 150 173 231 280 295 292 276 279 275 283 271 256 248 246 249 256 255 251 236 221 215 216 216 219
206 240 241 257 251 257 264 266 267 260 246 226 211 232 226 187 193 171 157 158 157 155 150 149 156 150 173 252 288 296 279 279 268 266 279 279 265 246 241 239 248 245 243 226 211 213 213 224 220
246 233 248 260 265 279 259 265 265 267 276 251 224 233 231 174 131 144 155 157 150 149 147 157 159 157 176 256 305 285 293 299 279 264 278 280 267 247 227 230 236 229 225 208 199 205 210 222 224
230 245 248 272 268 263 276 284 273 265 232 217 228 237 176 123 145 146 155 158 156 154 156 159 166 168 175 228 291 287 298 303 307 279 277 285 266 240 226 225 230 220 210 195 190 195 193 211 209
225 227 245 248 280 268 269 278 268 284 251 189 246 233 153 166 158 160 162 155 156 157 161 164 168 158 151 124 37 324 310 330 339 297 268 272 251 228 200 217 225 199 202 192 188 188 196 177 187
236 223 234 252 260 257 135 272 282 249 280 277 293 195 173 168 164 156 151 153 158 162 164 165 161 156 156 147 31 359 330 334 331 309 312 182 180 186 188 200 187 177 195 197 193 197 196 185 171
239 222 239 248 248 259 279 270 265 282 280 272 279 184 172 169 162 158 155 156 163 162 162 161 155 152 170 183 53 10 4 12 56 71 70 162 180 186 177 175 177 170 172 188 188 187 194 188 183
233 243 239 263 240 235 251 191 275 210 225 266 115 184 147 144 136 129 144 159 161 163 159 158 156 164 186 181 153 20 25 73 84 54 333 328 194 178 171 167 164 164 173 178 181 190 183 179 169
207 180 244 262 211 234 227 200 236 226 226 219 188 162 156 148 140 147 152 154 159 161 159 161 165 178 182 172 146 19 27 75 61 15 354 339 159 169 172 170 165 165 153 175 180 178 178 183 173
221 205 197 186 218 225 209 225 253 227 270 195 140 152 146 141 151 153 159 161 162 163 163 164 175 182 172 170 154 40 63 81 68 39 25 27 158 164 168 174 171 175 172 172 180 183 180 175 185
207 213 211 209 302 127 214 279 326 347 106 126 138 143 154 153 155 156 164 161 162 166 171 172 180 179 171 168 162 170 91 54 17 24 18 89 132 156 169 178 176 172 171 174 173 175 176 179 173
222 149 167 354 220 226 273 232 223 138 146 146 146 162 148 145 148 162 164 162 167 173 173 177 184 179 171 173 175 186 103 50 25 54 83 118 130 168 167 167 176 179 171 164 165 158 158 161 157
185 208 208 174 169 196 201 258 214 198 180 166 178 168 162 162 162 165 166 169 171 173 170 170 177 173 171 179 171 166 127 91 88 82 110 106 111 151 155 162 157 158 158 158 159 153 149 143 131
211 189 196 218 224 182 160 258 289 182 165 167 171 173 168 159 161 162 165 162 162 172 168 164 170 169 164 156 151 143 136 116 95 96 104 110 111 117 128 144 148 150 151 149 150 152 147 136 137